Showing default

COSMOS 1999, 19790

Orbit data source: Space-Track

COSMOS 1999, 19790 is a payload satellite owned by UNKS (CIS) in LEO that was launched on Fri, 10 Feb 1989 UTC via a TSIKLON-3 launch vehicle from the Plesetsk Missile And Space Complex (PKMTR). Payload-class satellites include a variety of spacecraft equipped with specific instruments for various scientific and technological missions. These include communications satellites like Starlink; space stations such as the ISS; scientific satellites like the Hubble; Earth observation satellites from companies like Planet Labs, Umbra, and HawkEye 360; GPS; miniature CubeSats for education and research; and military/defense satellites.

Loading next visibility...
Identifier
19790, 1989-009F
Orbit
LEO
Last TLE update
13 hours ago
Origin
Manufacturer
NPO PM
Mission
Defense Communications
Bus & Motor
STRELA-3, Unknown motor
Mass
225 kg wet, 225 kg dry
Launch date (UTC)
1989-02-10 (36 years ago)
Launch vehicle
TSIKLON-3
Launch site
Plesetsk Missile And Space Complex (PKMTR)
Object type
Payload
Rocket body
Debris
Shape & HBR
Cyl, 1.6 m
Radar Cross Section
1.257 m², Medium (>0.1 m² and < 1m²)

Expand to show TLE details & history

TLE from 13 hours ago
0 COSMOS 1999
1 19790U 89009F   25181.78935878  .00000006  00000-0 -27142-4 0  9991
2 19790  82.6170 191.1669 0018378 307.4069 226.0758 12.65738101680795
Epoch: 2025-06-30T18:56Z
TLE epoch observation values (Epoch: 2025-06-30T18:56:40.598Z)
Latitude
6.54227°
Longitude
167.05637°
Altitude
1,411.408 km
Speed
7.151 km/s
True Right ascension
00h 41m 16s
True Declination
6° 30' 24"
Sunlit
Object was in daylight at epoch
Visualization orbit readout
Latitude
-18.59146°
Longitude
170.03241°
Altitude
1,410.629 km
Speed
7.152 km/s
Apparent Right ascension
03h 25m 36s
Apparent Declination
-40° 41' 28"
Sunlit
Object is in daylight
Visualization observer readout
Local Sidereal Time
19:59:32
Azimuth
114.509° SE
Elevation
-39.173°
Doppler factor
1
Orbital elements
Apogee altitude
1,410.953 km
Perigee altitude
1,382.375 km
Semi-major axis
7,774.801 km
Eccentricity
0.00184
Inclination
82.617°
RAAN
191.1669°
Arg. of periapsis
307.4069°
True anomaly
Unknown
Mean anomaly
226.0758°
Eccentric anomaly
Unknown
Mean motion
3.16599 °/min
Orbital period
113.71 mins
BSTAR
-0.000027142
Loading maneuver chart data...
Loading SW <> Apogee altitude chart data...
Loading historical data...
Loading historical data...
Loading historical data...
Loading historical data...
Loading historical data...
Loading historical data...
Loading historical data...

COSMOS 1999 Visibility forecast

Observer location: undefined°, undefined°

Span
Click to sort rows by Start time (UTC) header in descending order
Start Az.
Max El. time (UTC)
Max El. Az.
Max El.
End time (UTC)
End Az.
15 mins2025-07-01 11:42:26.301Z4.872° NNE2025-07-01 11:49:26.301Z66.966° ENE35.757°2025-07-01 11:57:26.301Z146.456° SSE
13 mins2025-07-01 13:38:26.301Z330.477° NNW2025-07-01 13:44:26.301Z272.581° WNW30.442°2025-07-01 13:51:26.301Z212.994° SW
13 mins2025-07-02 00:29:26.301Z152.113° SSE2025-07-02 00:35:26.301Z90.94° ESE35.272°2025-07-02 00:42:26.301Z22.078° NNE
13 mins2025-07-02 02:24:26.301Z228.531° WSW2025-07-02 02:30:26.301Z288.697° WNW31.046°2025-07-02 02:37:26.301Z351.032° N
|